Tracking 19800 objects as of 23-Jul-2019
HD Live streaming from Space Station
objects crossing your sky now

IRIDIUM 71

Track IRIDIUM 71 now!
10-day predictions
IRIDIUM 71 is classified as:


NORAD ID: 25320
Int'l Code: 1998-026B
Perigee: 766.4 km
Apogee: 770.2 km
Inclination: 86.4 °
Period: 100.1 minutes
Semi major axis: 7139 km
RCS: 4.0318 m2 (large)
Launch date: May 2, 1998
Source: United States (US)
Launch site: Taiyaun Space Center, China (TSC)
aabbcc
Your satellite tracking list
Your tracking list is empty




NASA's NSSDC Master Catalog

Two Line Element Set (TLE):
1 25320U 98026B   19203.83113388 +.00000081 +00000-0 +19654-4 0  9995
2 25320 086.3974 279.1093 0002653 043.2170 316.9236 14.39203181113338
Source of the keplerian elements: AFSPC